Airfield :
LOGIN :

Register | Disclaimer

   EN    FR    IT 

 










Legend :    VFR   Marginal VFR   IFR   Intensive IFR   Very Intensive IFR
Visi :
Ceiling :
>= 8 km
>= 3000ft
5 to 8 km
1000 to 3000 ft
1500m to 5 km
500 to 1000 ft
800 to 1500m
200 to 500 ft
< 800m
< 200 ft
Symbols :   Thunderstorms  Fog  Heavy snow  Heavy precipitations  Wind > 20 kt
SIGMETs :     Misc.  Thunderstorms  Icing  Turbulence  Mountain Waves  Volcanic Ashes







- Airport Elevation : 277 ft
- IATA code : JER
- Download approach charts


EGJJ - Jersey

CURRENT METAR :
  • 220420Z AUTO 16009KT CAVOK 13/09 Q1011

EXPIRED METARs :
  • 220350Z AUTO 14009KT CAVOK 12/10 Q1011
  • 220320Z AUTO 13009KT CAVOK 12/09 Q1012
  • 220250Z AUTO 14009KT CAVOK 12/09 Q1012
  • 220220Z AUTO 14006KT CAVOK 13/10 Q1012
  • 220150Z AUTO 13006KT CAVOK 13/10 Q1012

TAF TAF EGJJ
Valid from the 22 at 03:00 until the 22 at 12:00 UTC


220159Z 2203/2212 16008KT CAVOK
BECMG 2207/2209 24010KT
BECMG 2210/2212 6000 SCT005
ATIS : +44 1534 498 073
No reported NOTAMs for that airfield.



MET'MAP, your aeronautical weather chart ! - Copyright ORBIFLY December 2007 - Disclaimer

ORBIFLY MET'MAP TEAM :

Programming & Development : Alexandra Zaïnal
Concept & Development : Baudouin d'Aumeries
Co-Development & Prog : Marc-Olivier Méhu
Technical & hardware support : Manuel Goepfert

Contact : metmap@orbifly.com




SOURCES & CREDITS :

   NOAA